2003 YS70 |
ephemeris |
date |
magn |
radius |
delta |
ra |
dec |
elong |
phase |
Today | 19 Oct 2025 | 30.8 | 1.030 AU | 0.711 AU | 09h03m | +16°59' | 72.1° | 66.9° |
2003 YS70 - 2025-10-19
astro.vanbuitenen.nl
The interactive orbit chart above shows the body's path through the solar system and its position at the given date.
Green and blue lines are shown perpendicular to the ecliptic plane: Green if the path is above the ecliptic plane, blue if it is below.
(Left-click and drag to rotate the view; Right-click and drag to move the view; Use scroll wheel to zoom in our out.)
The orbital elements of 2003 YS70 are:
e (Eccentricity) : 0.2317266
a (Semimajor axis) : 1.2772305
i (Inclination) : 0.35886
Ω (Longitude of ascending node) : 270.79519
ω (Argument of perihelion) : 197.47341
M (Mean anomaly) : 219.81243
Epoch : 2025 May 05
L (Longitude of perihelion) : 288.26828
B (Latitude of perihelion) : -0.10775
P (Orbital period in years) : 1.44
The light curve chart below shows the estimated development of the minor planet's magnitude.
The all-sky chart below shows the path of the minor planet over the same period as the light curve. The current position is marked yellow.
The following chart shows the path of the minor planet in the next few days. The field of view is optimized for (~10x50) binoculars and finderscopes.
Ephemerides:
Date Time RA (2000) DEC (2000) delta radius elong phase PA magn
2025-10-19 00:00 UT 09 03 56.1 +16 59 26 0.711 1.030 72.1 66.9 287 30.8
2025-10-19 01:25 UT 09 04 12.6 +16 58 13 0.711 1.030 72.0 66.9 287 30.8
2025-10-20 00:00 UT 09 08 35.4 +16 38 43 0.711 1.028 71.9 67.0 287 30.8
2025-10-21 00:00 UT 09 13 13.5 +16 17 38 0.710 1.026 71.7 67.2 287 30.8
2025-10-22 00:00 UT 09 17 50.4 +15 56 10 0.710 1.023 71.5 67.3 288 30.8
2025-10-23 00:00 UT 09 22 26.2 +15 34 22 0.710 1.021 71.4 67.4 288 30.8
2025-10-24 00:00 UT 09 27 00.7 +15 12 13 0.710 1.019 71.2 67.6 288 30.8
2025-10-25 00:00 UT 09 31 33.9 +14 49 46 0.710 1.017 71.0 67.7 289 30.8
2025-10-26 00:00 UT 09 36 05.8 +14 26 59 0.710 1.015 70.9 67.8 289 30.8
Terminology:
delta: distance between minor planet and earth in AU
radius: distance between minor planet and sun in AU
magn: magnitude (brightness) estimate
ra: right ascension in hours (24h = 360deg)
dec: declination in degrees
elong: elongation in degrees (angle sun-earth-minor planet)
phase: phase angle in degrees (angle sun-minor planet-earth)
AU: Astronomical Unit (mean distance between earth and sun: 149597870.7 km
Orbital elements provided by the MPC (Minor Planet Center).
Calculations by a modified version of AAPlus, a C# implementation of the AA+ project by PJ Naughter from the algorithms presented in the book "Astronomical Algorithms" by Jean Meeus.
NGC2000 dso catalog and star labels from VizieR as provided by the Strasbourg astronomical Data Center.
Tycho2 catalog from the ESO archive.